Time,TemperatureF,DewpointF,PressureIn,WindDirection,WindDirectionDegrees,WindSpeedMPH,WindSpeedGustMPH,Humidity,HourlyPrecipIn,Conditions,Clouds,dailyrainin,SoftwareType,DateUTC
2013-03-07 00:00:00,35.3,30.4,29.94,NW,320,13.0,13.0,82,0.00,,,0.00,Wunderground v.1.15,2013-03-07 05:00:00,
2013-03-07 00:05:00,35.3,30.4,29.94,NNE,20,13.0,13.0,82,0.00,,,0.00,Wunderground v.1.15,2013-03-07 05:05:00,
2013-03-07 00:10:00,35.4,30.5,29.93,NNE,16,13.0,13.0,82,0.00,,,0.00,Wunderground v.1.15,2013-03-07 05:10:00,
2013-03-07 00:15:00,35.4,30.5,29.93,NNW,338,12.0,13.0,82,0.00,,,0.00,Wunderground v.1.15,2013-03-07 05:15:00,
2013-03-07 00:25:00,35.4,30.1,29.94,NE,34,12.0,12.0,81,0.00,,,0.00,Wunderground v.1.15,2013-03-07 05:25:00,
2013-03-07 00:35:00,35.4,30.5,29.95,NNW,347,12.0,12.0,82,0.00,,,0.00,Wunderground v.1.15,2013-03-07 05:35:00,
2013-03-07 00:45:00,35.2,30.3,29.94,North,4,13.0,15.0,82,0.00,,,0.00,Wunderground v.1.15,2013-03-07 05:45:00,
2013-03-07 00:55:00,35.0,30.4,29.94,NNE,30,12.0,15.0,83,0.00,,,0.00,Wunderground v.1.15,2013-03-07 05:55:00,
2013-03-07 01:05:00,34.8,30.5,29.95,NNE,18,12.0,20.0,84,0.00,,,0.00,Wunderground v.1.15,2013-03-07 06:05:00,
2013-03-07 01:15:00,34.6,30.6,29.94,NNW,338,12.0,14.0,85,0.00,,,0.00,Wunderground v.1.15,2013-03-07 06:15:00,
2013-03-07 01:25:00,34.3,30.5,29.93,NNE,16,11.0,12.0,86,0.00,,,0.00,Wunderground v.1.15,2013-03-07 06:25:00,
2013-03-07 01:30:00,34.1,30.6,29.93,NW,316,12.0,12.0,87,0.00,,,0.00,Wunderground v.1.15,2013-03-07 06:30:00,
2013-03-07 01:40:00,33.7,30.5,29.93,WNW,292,10.0,10.0,88,0.00,,,0.00,Wunderground v.1.15,2013-03-07 06:40:00,
2013-03-07 01:50:00,33.5,30.6,29.92,North,1,11.0,14.0,89,0.00,,,0.00,Wunderground v.1.15,2013-03-07 06:50:00,
2013-03-07 01:55:00,33.5,30.6,29.92,NNE,19,11.0,16.0,89,0.00,,,0.00,Wunderground v.1.15,2013-03-07 06:55:00,
2013-03-07 02:00:00,33.4,30.5,29.92,WNW,290,11.0,11.0,89,0.00,,,0.00,Wunderground v.1.15,2013-03-07 07:00:00,
2013-03-07 02:10:00,33.6,30.1,29.92,NNE,29,11.0,11.0,87,0.00,,,0.00,Wunderground v.1.15,2013-03-07 07:10:00,
2013-03-07 02:15:00,33.6,30.1,29.92,NNE,20,11.0,14.0,87,0.00,,,0.00,Wunderground v.1.15,2013-03-07 07:15:00,
2013-03-07 02:25:00,33.8,30.3,29.92,North,1,10.0,11.0,87,0.00,,,0.00,Wunderground v.1.15,2013-03-07 07:25:00,
2013-03-07 02:35:00,33.8,30.1,29.91,NW,323,10.0,16.0,86,0.00,,,0.00,Wunderground v.1.15,2013-03-07 07:35:00,
2013-03-07 02:45:00,33.9,29.9,29.90,NW,314,11.0,11.0,85,0.00,,,0.00,Wunderground v.1.15,2013-03-07 07:45:00,
2013-03-07 02:55:00,33.7,30.0,29.91,NNW,327,11.0,11.0,86,0.00,,,0.00,Wunderground v.1.15,2013-03-07 07:55:00,
2013-03-07 03:05:00,33.5,30.0,29.91,NNW,347,10.0,10.0,87,0.00,,,0.00,Wunderground v.1.15,2013-03-07 08:05:00,
2013-03-07 03:10:00,33.5,30.0,29.91,North,357,9.0,12.0,87,0.00,,,0.00,Wunderground v.1.15,2013-03-07 08:10:00,
2013-03-07 03:20:00,33.5,30.0,29.92,WNW,300,10.0,13.0,87,0.00,,,0.00,Wunderground v.1.15,2013-03-07 08:20:00,
2013-03-07 03:30:00,33.3,29.8,29.92,North,359,12.0,12.0,87,0.00,,,0.00,Wunderground v.1.15,2013-03-07 08:30:00,
2013-03-07 03:40:00,33.1,29.9,29.92,NNE,19,10.0,10.0,88,0.00,,,0.00,Wunderground v.1.15,2013-03-07 08:40:00,
2013-03-07 03:50:00,32.8,29.9,29.92,North,353,10.0,10.0,89,0.00,,,0.00,Wunderground v.1.15,2013-03-07 08:50:00,
2013-03-07 03:55:00,32.6,30.0,29.92,NNW,345,10.0,10.0,90,0.00,,,0.00,Wunderground v.1.15,2013-03-07 08:55:00,
2013-03-07 04:05:00,32.1,30.0,29.92,NNW,328,10.0,10.0,92,0.00,,,0.00,Wunderground v.1.15,2013-03-07 09:05:00,
2013-03-07 04:15:00,31.9,30.1,29.92,NNE,15,9.0,11.0,93,0.00,,,0.00,Wunderground v.1.15,2013-03-07 09:15:00,
2013-03-07 04:25:00,31.9,29.8,29.92,North,1,10.0,11.0,92,0.00,,,0.00,Wunderground v.1.15,2013-03-07 09:25:00,
2013-03-07 04:35:00,31.8,30.0,29.92,NW,314,9.0,10.0,93,0.00,,,0.00,Wunderground v.1.15,2013-03-07 09:35:00,
2013-03-07 04:45:00,31.8,29.7,29.93,NW,315,9.0,9.0,92,0.00,,,0.00,Wunderground v.1.15,2013-03-07 09:45:00,
2013-03-07 04:55:00,31.8,29.7,29.93,North,349,9.0,10.0,92,0.00,,,0.00,Wunderground v.1.15,2013-03-07 09:55:00,
2013-03-07 05:05:00,31.7,29.6,29.93,North,358,9.0,10.0,92,0.00,,,0.00,Wunderground v.1.15,2013-03-07 10:05:00,
2013-03-07 05:15:00,31.8,29.5,29.94,North,359,9.0,11.0,91,0.00,,,0.00,Wunderground v.1.15,2013-03-07 10:15:00,
2013-03-07 05:20:00,31.8,29.2,29.94,NNE,12,10.0,13.0,90,0.00,,,0.00,Wunderground v.1.15,2013-03-07 10:20:00,
2013-03-07 05:35:00,32.3,28.9,29.94,North,356,10.0,14.0,87,0.00,,,0.00,Wunderground v.1.15,2013-03-07 10:35:00,
2013-03-07 05:40:00,32.4,29.0,29.94,NNW,342,9.0,9.0,87,0.00,,,0.00,Wunderground v.1.15,2013-03-07 10:40:00,
2013-03-07 05:50:00,32.5,28.8,29.94,North,355,10.0,12.0,86,0.00,,,0.00,Wunderground v.1.15,2013-03-07 10:50:00,
2013-03-07 06:00:00,32.6,28.6,29.95,NNE,20,10.0,10.0,85,0.00,,,0.00,Wunderground v.1.15,2013-03-07 11:00:00,
2013-03-07 06:10:00,32.7,28.4,29.94,NW,314,10.0,10.0,84,0.00,,,0.00,Wunderground v.1.15,2013-03-07 11:10:00,
2013-03-07 06:15:00,32.7,28.4,29.95,North,357,9.0,10.0,84,0.00,,,0.00,Wunderground v.1.15,2013-03-07 11:15:00,
2013-03-07 06:25:00,32.8,28.2,29.95,NNE,20,10.0,12.0,83,0.00,,,0.00,Wunderground v.1.15,2013-03-07 11:25:00,
2013-03-07 06:35:00,32.9,28.0,29.95,NW,316,10.0,14.0,82,0.00,,,0.00,Wunderground v.1.15,2013-03-07 11:35:00,
2013-03-07 06:45:00,32.5,28.5,29.96,North,11,10.0,12.0,85,0.00,,,0.00,Wunderground v.1.15,2013-03-07 11:45:00,
2013-03-07 06:55:00,32.0,28.6,29.95,NW,318,11.0,11.0,87,0.00,,,0.00,Wunderground v.1.15,2013-03-07 11:55:00,
2013-03-07 07:00:00,31.8,28.7,29.95,North,354,10.0,10.0,88,0.00,,,0.00,Wunderground v.1.15,2013-03-07 12:00:00,
2013-03-07 07:10:00,31.8,28.7,29.96,North,4,9.0,9.0,88,0.00,,,0.00,Wunderground v.1.15,2013-03-07 12:10:00,
2013-03-07 07:20:00,31.8,28.4,29.95,North,6,9.0,11.0,87,0.00,,,0.00,Wunderground v.1.15,2013-03-07 12:20:00,
2013-03-07 07:30:00,31.7,28.6,29.95,NNW,345,10.0,10.0,88,0.00,,,0.00,Wunderground v.1.15,2013-03-07 12:30:00,
2013-03-07 07:40:00,31.6,28.5,29.95,NNW,344,10.0,10.0,88,0.00,,,0.00,Wunderground v.1.15,2013-03-07 12:40:00,
2013-03-07 07:50:00,31.7,28.6,29.96,NW,326,9.0,9.0,88,0.00,,,0.00,Wunderground v.1.15,2013-03-07 12:50:00,
2013-03-07 08:00:00,31.8,28.4,29.96,NW,309,10.0,10.0,87,0.00,,,0.00,Wunderground v.1.15,2013-03-07 13:00:00,
2013-03-07 08:10:00,32.0,28.3,29.95,NW,312,9.0,9.0,86,0.00,,,0.00,Wunderground v.1.15,2013-03-07 13:10:00,
2013-03-07 08:15:00,32.1,28.4,29.96,NW,318,8.0,9.0,86,0.00,,,0.00,Wunderground v.1.15,2013-03-07 13:15:00,
2013-03-07 08:25:00,32.3,28.3,29.96,WNW,294,10.0,10.0,85,0.00,,,0.00,Wunderground v.1.15,2013-03-07 13:25:00,
2013-03-07 08:35:00,32.5,28.2,29.95,NNW,327,10.0,10.0,84,0.00,,,0.00,Wunderground v.1.15,2013-03-07 13:35:00,
2013-03-07 08:40:00,32.7,28.1,29.96,NW,313,10.0,10.0,83,0.00,,,0.00,Wunderground v.1.15,2013-03-07 13:40:00,
2013-03-07 08:50:00,32.9,28.0,29.95,NW,304,10.0,10.0,82,0.00,,,0.00,Wunderground v.1.15,2013-03-07 13:50:00,
2013-03-07 09:00:00,33.2,28.3,29.95,NNW,336,9.0,15.0,82,0.00,,,0.00,Wunderground v.1.15,2013-03-07 14:00:00,
2013-03-07 09:05:00,33.4,28.2,29.95,NNE,18,10.0,15.0,81,0.00,,,0.00,Wunderground v.1.15,2013-03-07 14:05:00,
2013-03-07 09:15:00,33.7,27.9,29.95,North,359,10.0,13.0,79,0.00,,,0.00,Wunderground v.1.15,2013-03-07 14:15:00,
2013-03-07 09:25:00,34.0,27.9,29.95,NNE,12,11.0,11.0,78,0.00,,,0.00,Wunderground v.1.15,2013-03-07 14:25:00,
2013-03-07 09:35:00,34.3,28.2,29.95,North,355,10.0,11.0,78,0.00,,,0.00,Wunderground v.1.15,2013-03-07 14:35:00,
2013-03-07 09:45:00,34.7,28.2,29.95,North,360,10.0,12.0,77,0.00,,,0.00,Wunderground v.1.15,2013-03-07 14:45:00,
2013-03-07 09:50:00,35.0,28.5,29.95,NNE,25,10.0,11.0,77,0.00,,,0.00,Wunderground v.1.15,2013-03-07 14:50:00,
2013-03-07 10:00:00,35.3,28.5,29.95,NNE,20,11.0,11.0,76,0.00,,,0.00,Wunderground v.1.15,2013-03-07 15:00:00,
2013-03-07 10:10:00,35.7,28.9,29.94,NNW,333,10.0,13.0,76,0.00,,,0.00,Wunderground v.1.15,2013-03-07 15:10:00,
2013-03-07 10:20:00,36.0,28.8,29.95,NW,320,10.0,13.0,75,0.00,,,0.00,Wunderground v.1.15,2013-03-07 15:20:00,
2013-03-07 10:30:00,36.2,28.7,29.95,WNW,300,12.0,14.0,74,0.00,,,0.00,Wunderground v.1.15,2013-03-07 15:30:00,
2013-03-07 10:40:00,36.4,28.6,29.95,NW,304,10.0,10.0,73,0.00,,,0.00,Wunderground v.1.15,2013-03-07 15:40:00,
2013-03-07 10:50:00,36.5,28.7,29.96,East,82,12.0,14.0,73,0.00,,,0.00,Wunderground v.1.15,2013-03-07 15:50:00,
2013-03-07 10:55:00,36.4,28.6,29.96,North,7,13.0,14.0,73,0.00,,,0.00,Wunderground v.1.15,2013-03-07 15:55:00,
2013-03-07 11:05:00,36.5,29.0,29.96,NNW,334,12.0,13.0,74,0.00,,,0.00,Wunderground v.1.15,2013-03-07 16:05:00,
2013-03-07 11:15:00,36.7,28.9,29.96,NNE,13,9.0,19.0,73,0.00,,,0.00,Wunderground v.1.15,2013-03-07 16:15:00,
2013-03-07 11:25:00,36.6,29.1,29.96,NNW,345,11.0,11.0,74,0.00,,,0.00,Wunderground v.1.15,2013-03-07 16:25:00,
2013-03-07 11:35:00,36.7,29.2,29.96,North,5,12.0,17.0,74,0.00,,,0.00,Wunderground v.1.15,2013-03-07 16:35:00,
2013-03-07 11:45:00,36.7,29.2,29.96,North,3,12.0,12.0,74,0.00,,,0.00,Wunderground v.1.15,2013-03-07 16:45:00,
2013-03-07 11:50:00,36.7,29.2,29.97,North,1,11.0,11.0,74,0.00,,,0.00,Wunderground v.1.15,2013-03-07 16:50:00,
2013-03-07 12:00:00,36.6,29.1,29.97,NNW,335,10.0,10.0,74,0.00,,,0.00,Wunderground v.1.15,2013-03-07 17:00:00,
2013-03-07 12:10:00,36.4,29.2,29.97,NNW,340,11.0,17.0,75,0.00,,,0.00,Wunderground v.1.15,2013-03-07 17:10:00,
2013-03-07 12:20:00,36.1,29.3,29.97,NW,316,10.0,10.0,76,0.00,,,0.00,Wunderground v.1.15,2013-03-07 17:20:00,
2013-03-07 12:30:00,36.1,28.9,29.97,North,8,11.0,11.0,75,0.00,,,0.00,Wunderground v.1.15,2013-03-07 17:30:00,
2013-03-07 12:35:00,36.2,29.0,29.97,North,351,13.0,15.0,75,0.00,,,0.00,Wunderground v.1.15,2013-03-07 17:35:00,
2013-03-07 12:45:00,36.1,28.9,29.97,WNW,300,12.0,12.0,75,0.00,,,0.00,Wunderground v.1.15,2013-03-07 17:45:00,
2013-03-07 12:55:00,36.2,29.0,29.96,NW,318,10.0,13.0,75,0.00,,,0.00,Wunderground v.1.15,2013-03-07 17:55:00,
2013-03-07 13:05:00,36.3,29.1,29.96,NNW,340,10.0,10.0,75,0.00,,,0.00,Wunderground v.1.15,2013-03-07 18:05:00,
2013-03-07 13:10:00,36.4,28.9,29.96,NNE,12,9.0,10.0,74,0.00,,,0.00,Wunderground v.1.15,2013-03-07 18:10:00,
2013-03-07 13:20:00,36.4,28.9,29.96,NNE,30,11.0,11.0,74,0.00,,,0.00,Wunderground v.1.15,2013-03-07 18:20:00,
2013-03-07 13:30:00,36.6,29.1,29.96,North,354,11.0,13.0,74,0.00,,,0.00,Wunderground v.1.15,2013-03-07 18:30:00,
2013-03-07 13:40:00,36.6,28.8,29.95,NNW,329,11.0,11.0,73,0.00,,,0.00,Wunderground v.1.15,2013-03-07 18:40:00,
2013-03-07 13:50:00,36.7,28.9,29.96,North,7,11.0,16.0,73,0.00,,,0.00,Wunderground v.1.15,2013-03-07 18:50:00,
2013-03-07 14:00:00,36.7,29.2,29.96,North,354,9.0,12.0,74,0.00,,,0.00,Wunderground v.1.15,2013-03-07 19:00:00,
2013-03-07 14:10:00,36.8,29.0,29.96,NW,318,11.0,11.0,73,0.00,,,0.00,Wunderground v.1.15,2013-03-07 19:10:00,
2013-03-07 14:20:00,36.7,28.9,29.96,NNW,332,12.0,12.0,73,0.00,,,0.00,Wunderground v.1.15,2013-03-07 19:20:00,
2013-03-07 14:25:00,36.8,29.0,29.97,NNE,23,11.0,14.0,73,0.00,,,0.00,Wunderground v.1.15,2013-03-07 19:25:00,
2013-03-07 14:30:00,36.7,28.9,29.96,North,7,10.0,14.0,73,0.00,,,0.00,Wunderground v.1.15,2013-03-07 19:30:00,
2013-03-07 14:40:00,36.6,29.1,29.97,NNW,334,10.0,13.0,74,0.00,,,0.00,Wunderground v.1.15,2013-03-07 19:40:00,
2013-03-07 14:50:00,36.4,29.2,29.97,NNW,330,10.0,10.0,75,0.00,,,0.00,Wunderground v.1.15,2013-03-07 19:50:00,
2013-03-07 15:00:00,36.1,29.6,29.97,NNW,347,9.0,9.0,77,0.00,,,0.00,Wunderground v.1.15,2013-03-07 20:00:00,
2013-03-07 15:10:00,36.2,29.0,29.97,NNW,343,8.0,12.0,75,0.00,,,0.00,Wunderground v.1.15,2013-03-07 20:10:00,
2013-03-07 15:20:00,36.3,28.8,29.97,North,6,9.0,15.0,74,0.00,,,0.00,Wunderground v.1.15,2013-03-07 20:20:00,
2013-03-07 15:25:00,36.4,28.9,29.98,NNW,342,10.0,15.0,74,0.00,,,0.00,Wunderground v.1.15,2013-03-07 20:25:00,
2013-03-07 15:35:00,36.5,29.0,29.98,NW,311,8.0,10.0,74,0.00,,,0.00,Wunderground v.1.15,2013-03-07 20:35:00,
2013-03-07 15:45:00,36.3,29.1,29.98,NNW,347,9.0,10.0,75,0.00,,,0.00,Wunderground v.1.15,2013-03-07 20:45:00,
2013-03-07 15:55:00,36.1,29.3,29.98,NW,318,9.0,9.0,76,0.00,,,0.00,Wunderground v.1.15,2013-03-07 20:55:00,
2013-03-07 16:05:00,35.8,29.9,29.98,NW,316,8.0,12.0,79,0.00,,,0.00,Wunderground v.1.15,2013-03-07 21:05:00,
2013-03-07 16:15:00,35.5,29.9,29.98,NW,318,8.0,9.0,80,0.00,,,0.00,Wunderground v.1.15,2013-03-07 21:15:00,
2013-03-07 16:20:00,35.3,29.7,29.98,NW,319,8.0,8.0,80,0.00,,,0.00,Wunderground v.1.15,2013-03-07 21:20:00,
2013-03-07 16:30:00,34.9,30.6,29.98,NW,321,6.0,6.0,84,0.00,,,0.00,Wunderground v.1.15,2013-03-07 21:30:00,
2013-03-07 16:40:00,34.3,30.8,29.98,NNW,347,6.0,6.0,87,0.00,,,0.00,Wunderground v.1.15,2013-03-07 21:40:00,
2013-03-07 16:50:00,33.7,30.8,29.98,NNW,346,6.0,6.0,89,0.00,,,0.00,Wunderground v.1.15,2013-03-07 21:50:00,
2013-03-07 17:00:00,33.3,31.0,29.99,NNW,331,6.0,6.0,91,0.00,,,0.00,Wunderground v.1.15,2013-03-07 22:00:00,
2013-03-07 17:10:00,33.1,31.0,29.99,NW,305,6.0,6.0,92,0.00,,,0.00,Wunderground v.1.15,2013-03-07 22:10:00,
2013-03-07 17:20:00,33.0,30.9,29.99,NNW,337,6.0,6.0,92,0.00,,,0.00,Wunderground v.1.15,2013-03-07 22:20:00,
2013-03-07 17:30:00,32.9,30.8,30.00,NNW,331,6.0,6.0,92,0.00,,,0.00,Wunderground v.1.15,2013-03-07 22:30:00,
2013-03-07 17:35:00,32.8,31.0,29.99,NW,324,5.0,6.0,93,0.00,,,0.00,Wunderground v.1.15,2013-03-07 22:35:00,
2013-03-07 17:45:00,32.7,30.9,30.00,NW,309,5.0,5.0,93,0.00,,,0.00,Wunderground v.1.15,2013-03-07 22:45:00,
2013-03-07 17:50:00,32.6,31.1,30.00,WNW,293,5.0,5.0,94,0.00,,,0.00,Wunderground v.1.15,2013-03-07 22:50:00,
2013-03-07 18:00:00,32.5,31.0,30.00,NW,316,5.0,5.0,94,0.00,,,0.00,Wunderground v.1.15,2013-03-07 23:00:00,
2013-03-07 18:05:00,32.5,31.2,30.00,NW,305,5.0,6.0,95,0.00,,,0.00,Wunderground v.1.15,2013-03-07 23:05:00,
2013-03-07 18:20:00,32.3,31.0,30.00,NW,326,5.0,6.0,95,0.00,,,0.00,Wunderground v.1.15,2013-03-07 23:20:00,
2013-03-07 18:25:00,32.2,30.9,30.00,NW,308,6.0,6.0,95,0.00,,,0.00,Wunderground v.1.15,2013-03-07 23:25:00,
2013-03-07 18:35:00,32.1,30.8,30.00,NW,318,6.0,7.0,95,0.00,,,0.00,Wunderground v.1.15,2013-03-07 23:35:00,
2013-03-07 18:45:00,32.0,30.7,30.00,NW,304,5.0,6.0,95,0.00,,,0.00,Wunderground v.1.15,2013-03-07 23:45:00,
2013-03-07 18:55:00,31.9,30.9,30.00,WNW,289,6.0,6.0,96,0.00,,,0.00,Wunderground v.1.15,2013-03-07 23:55:00,
2013-03-07 19:05:00,31.9,30.9,30.00,WNW,297,6.0,6.0,96,0.00,,,0.00,Wunderground v.1.15,2013-03-08 00:05:00,
2013-03-07 19:10:00,31.8,30.8,30.00,NNW,336,5.0,9.0,96,0.00,,,0.00,Wunderground v.1.15,2013-03-08 00:10:00,
2013-03-07 19:20:00,31.7,30.7,30.00,NW,319,5.0,5.0,96,0.00,,,0.00,Wunderground v.1.15,2013-03-08 00:20:00,
2013-03-07 19:30:00,31.6,30.6,30.00,WNW,290,6.0,7.0,96,0.00,,,0.00,Wunderground v.1.15,2013-03-08 00:30:00,
2013-03-07 19:40:00,31.6,30.6,30.00,NNW,333,6.0,6.0,96,0.00,,,0.00,Wunderground v.1.15,2013-03-08 00:40:00,
2013-03-07 19:50:00,31.6,30.6,30.00,WNW,287,6.0,6.0,96,0.00,,,0.00,Wunderground v.1.15,2013-03-08 00:50:00,
2013-03-07 20:00:00,31.5,30.5,30.00,NW,315,5.0,6.0,96,0.00,,,0.00,Wunderground v.1.15,2013-03-08 01:00:00,
2013-03-07 20:10:00,31.5,30.5,30.00,WNW,287,5.0,5.0,96,0.00,,,0.00,Wunderground v.1.15,2013-03-08 01:10:00,
2013-03-07 20:15:00,31.5,30.5,30.00,NNW,333,5.0,7.0,96,0.00,,,0.00,Wunderground v.1.15,2013-03-08 01:15:00,
2013-03-07 20:25:00,31.5,30.5,30.00,WNW,294,5.0,5.0,96,0.00,,,0.00,Wunderground v.1.15,2013-03-08 01:25:00,
2013-03-07 20:35:00,31.6,30.6,30.00,NW,320,5.0,5.0,96,0.00,,,0.00,Wunderground v.1.15,2013-03-08 01:35:00,
2013-03-07 20:45:00,31.6,30.6,30.00,NW,316,5.0,6.0,96,0.00,,,0.00,Wunderground v.1.15,2013-03-08 01:45:00,
2013-03-07 20:55:00,31.7,30.7,30.00,NNW,328,5.0,5.0,96,0.00,,,0.00,Wunderground v.1.15,2013-03-08 01:55:00,
2013-03-07 21:05:00,31.7,30.7,30.00,NW,320,5.0,6.0,96,0.00,,,0.00,Wunderground v.1.15,2013-03-08 02:05:00,
2013-03-07 21:10:00,31.7,30.7,29.99,NW,316,5.0,5.0,96,0.00,,,0.00,Wunderground v.1.15,2013-03-08 02:10:00,
2013-03-07 21:20:00,31.8,30.8,29.99,NW,326,5.0,5.0,96,0.00,,,0.00,Wunderground v.1.15,2013-03-08 02:20:00,
2013-03-07 21:30:00,31.8,30.8,29.99,NNW,344,5.0,5.0,96,0.00,,,0.00,Wunderground v.1.15,2013-03-08 02:30:00,
2013-03-07 21:40:00,31.8,30.8,29.99,NW,315,5.0,7.0,96,0.00,,,0.00,Wunderground v.1.15,2013-03-08 02:40:00,
2013-03-07 21:50:00,31.8,30.8,29.99,NW,323,5.0,5.0,96,0.00,,,0.00,Wunderground v.1.15,2013-03-08 02:50:00,
2013-03-07 22:00:00,31.8,31.0,29.98,NW,312,6.0,6.0,97,0.00,,,0.00,Wunderground v.1.15,2013-03-08 03:00:00,
2013-03-07 22:10:00,31.8,31.0,29.98,NNW,336,5.0,5.0,97,0.00,,,0.00,Wunderground v.1.15,2013-03-08 03:10:00,
2013-03-07 22:15:00,31.8,31.0,29.98,NNW,334,5.0,5.0,97,0.00,,,0.00,Wunderground v.1.15,2013-03-08 03:15:00,
2013-03-07 22:20:00,31.8,31.0,29.98,NNW,337,6.0,6.0,97,0.00,,,0.00,Wunderground v.1.15,2013-03-08 03:20:00,
2013-03-07 22:30:00,31.7,30.9,29.98,NW,313,6.0,6.0,97,0.00,,,0.00,Wunderground v.1.15,2013-03-08 03:30:00,
2013-03-07 22:35:00,31.7,30.7,29.98,WNW,294,6.0,6.0,96,0.00,,,0.00,Wunderground v.1.15,2013-03-08 03:35:00,
2013-03-07 22:45:00,31.5,30.5,29.97,North,360,7.0,10.0,96,0.00,,,0.00,Wunderground v.1.15,2013-03-08 03:45:00,
2013-03-07 22:55:00,31.5,30.5,29.97,NW,319,6.0,7.0,96,0.00,,,0.00,Wunderground v.1.15,2013-03-08 03:55:00,
2013-03-07 23:00:00,31.5,30.5,29.97,NNW,328,5.0,5.0,96,0.00,,,0.00,Wunderground v.1.15,2013-03-08 04:00:00,
2013-03-07 23:05:00,31.5,30.5,29.97,NW,313,5.0,7.0,96,0.00,,,0.00,Wunderground v.1.15,2013-03-08 04:05:00,
2013-03-07 23:15:00,31.4,30.4,29.97,NNW,342,6.0,8.0,96,0.00,,,0.00,Wunderground v.1.15,2013-03-08 04:15:00,
2013-03-07 23:20:00,31.4,30.4,29.97,NNW,340,6.0,6.0,96,0.00,,,0.00,Wunderground v.1.15,2013-03-08 04:20:00,
2013-03-07 23:30:00,31.3,30.3,29.97,NW,326,6.0,6.0,96,0.00,,,0.00,Wunderground v.1.15,2013-03-08 04:30:00,
2013-03-07 23:40:00,31.3,30.5,29.97,North,7,5.0,5.0,97,0.00,,,0.00,Wunderground v.1.15,2013-03-08 04:40:00,
2013-03-07 23:50:00,31.3,30.5,29.97,NNW,329,6.0,6.0,97,0.00,,,0.00,Wunderground v.1.15,2013-03-08 04:50:00,